Location: Grums
(59.3529°N, 13.1129°E)
Time: 23:55:55
(UTC+01:00)

SEEDS - Pass Details

Date: 28 November 2021
Orbit: 584 x 600 km, 97.6° (Epoch: 27 January)

Event Time Altitude Azimuth Distance (km) Brightness Sun altitude
Rises 04:21:51 0° 19° (NNE) 2,834 ? -30.1°
Reaches altitude 10° 04:24:08 10° 27° (NNE) 1,926 ? -29.8°
Enters shadow 04:27:36 38° 79° (E) 904 ? -29.4°
